Theta_e
310 311 311 311 311 311 311 310 310 310 310 310 311 311 310 309 309 310 310 310 311 311 311 311 310 311 310 310 311 311 310 311 311 313 314 314 314 313 313 313 314 314 314 314 314 315 315 314 315 315 316 317 317 318 317 317 318 321 333 339 324 318 318 316 320 319 320 320 315 315 316 317 317 316 315 315 315 315 314 314 314 314 314 314 314 315 314 313
309 309 309 309 309 309 309 309 308 308 308 308 309 310 309 308 309 309 309 310 311 311 311 310 310 310 310 310 310 311 311 311 312 315 316 313 313 313 314 314 314 314 314 314 314 315 316 315 315 315 316 316 316 317 317 318 317 322 334 333 321 321 318 314 317 315 316 317 315 315 316 317 317 316 315 316 315 314 315 314 312 313 314 313 314 313 313 312
307 307 307 307 307 307 308 307 307 307 307 307 308 308 308 307 308 309 309 310 311 310 310 310 310 310 310 310 310 311 311 311 313 315 315 313 313 313 314 314 314 314 314 315 315 315 315 314 314 315 316 316 315 317 317 318 317 317 327 327 319 320 316 313 316 315 316 316 314 315 315 317 317 316 315 316 314 313 315 315 313 313 313 313 313 312 312 312
307 307 307 307 307 307 307 307 307 307 307 307 307 307 307 307 308 309 310 310 310 310 310 310 310 310 310 310 311 310 312 315 315 314 313 313 313 313 314 314 314 314 314 315 315 314 314 314 315 315 315 315 315 316 316 317 317 316 322 324 316 315 316 316 316 316 316 316 315 315 315 316 316 316 315 315 316 315 315 315 315 315 315 314 313 313 312 312
308 308 308 308 308 307 307 307 308 307 307 307 307 307 307 308 308 309 310 309 310 309 310 310 310 310 310 310 310 311 316 318 315 313 313 313 313 313 314 314 314 314 313 315 315 314 315 315 315 315 316 315 315 317 316 316 317 316 317 317 314 313 316 316 315 316 316 316 316 315 315 316 315 316 315 315 318 318 315 315 316 315 315 315 314 313 312 311
310 310 310 309 309 309 309 308 308 308 308 308 308 308 308 308 308 309 309 309 309 309 310 310 310 310 310 311 310 311 316 317 314 313 313 313 313 313 313 313 314 313 313 314 315 315 315 315 316 316 315 314 315 317 317 316 318 319 316 314 315 315 316 317 315 316 316 316 316 314 315 315 315 315 315 314 316 316 315 316 316 315 315 315 314 313 312 311
311 311 311 311 311 310 310 310 310 309 309 308 308 308 308 308 308 309 309 309 309 309 310 310 310 310 310 310 310 311 314 315 314 313 313 313 313 313 313 313 313 313 313 314 315 315 315 316 316 316 315 315 315 315 316 316 316 321 319 315 316 316 316 317 316 316 315 315 315 315 315 315 315 315 315 315 315 315 315 315 315 315 315 314 314 313 312 311
310 310 310 310 310 310 310 310 310 310 310 310 309 308 308 308 308 309 309 309 309 309 310 309 310 310 310 310 310 313 315 314 314 314 313 313 313 313 313 314 314 314 314 314 316 316 315 316 316 316 316 316 316 315 315 317 317 319 319 315 316 316 317 317 317 317 315 315 315 315 315 315 315 314 314 315 315 315 315 315 315 314 314 313 313 312 311 311
309 308 308 308 308 308 309 309 309 310 310 310 310 310 310 309 309 309 309 309 309 309 309 309 310 309 310 310 310 313 314 314 314 314 313 313 313 314 315 316 317 317 315 316 317 316 316 316 316 317 317 316 316 316 315 318 318 317 316 316 316 316 316 316 316 317 316 315 315 315 315 315 314 314 315 314 315 315 314 314 313 313 313 313 312 312 311 311
308 308 308 308 308 308 308 308 308 309 309 309 310 310 310 310 310 309 309 309 309 309 309 309 309 309 310 310 311 313 315 316 315 314 313 314 314 315 317 317 318 318 317 317 317 316 316 316 316 316 317 316 316 315 315 318 318 316 315 316 316 316 316 316 316 316 316 316 315 316 316 315 314 315 316 315 314 314 314 313 312 312 312 312 312 311 311 311
307 308 308 308 308 308 308 309 309 309 309 309 309 309 309 310 310 310 310 309 309 309 309 309 309 310 310 311 313 313 316 317 315 314 314 315 315 315 316 316 318 319 318 318 317 316 317 316 316 316 318 317 316 315 315 316 316 315 316 317 316 315 315 315 315 315 316 315 315 316 315 314 313 314 317 315 314 314 313 313 312 311 311 311 311 310 311 311
307 307 307 308 308 308 308 308 309 309 309 309 309 309 308 308 309 310 310 310 310 309 309 309 309 309 310 310 311 313 317 318 315 315 315 315 314 314 315 316 317 318 319 319 318 318 317 316 316 317 318 316 316 316 316 316 315 315 316 318 321 319 319 316 314 315 315 316 315 315 315 317 315 314 316 314 314 314 312 312 311 311 311 310 310 310 310 311
307 307 307 307 307 307 307 307 308 309 309 309 309 309 308 308 308 308 310 310 310 310 309 309 309 309 310 310 310 311 316 319 316 315 315 315 314 314 314 315 317 318 319 319 319 319 317 317 317 317 317 316 317 316 316 315 314 317 315 316 322 324 324 317 313 315 314 315 315 315 319 326 324 314 313 314 313 313 311 311 311 311 310 310 310 310 311 311
307 307 307 306 306 306 306 307 307 308 308 308 308 309 308 308 307 307 309 309 310 310 310 310 309 309 309 311 312 312 315 318 318 316 315 315 314 314 315 315 317 318 318 318 318 318 318 318 317 318 317 317 317 315 318 318 316 318 314 319 323 321 328 323 312 314 315 314 314 316 319 326 325 315 312 313 313 312 311 311 311 310 311 310 310 310 310 311
308 307 307 307 307 306 306 306 307 307 308 308 308 308 308 308 307 307 307 308 309 309 309 309 309 310 311 311 312 312 313 315 317 316 315 314 314 314 315 316 317 317 318 318 318 318 317 318 317 317 316 316 317 318 325 325 324 323 316 326 328 318 330 329 312 313 317 314 312 316 320 320 320 315 312 313 312 312 312 311 311 310 310 310 310 310 310 311
308 308 308 307 307 307 307 306 307 307 307 307 307 308 308 307 307 307 307 307 307 308 308 309 310 311 313 312 312 313 313 313 314 315 314 314 314 315 315 316 317 317 318 317 317 317 317 317 316 316 315 316 320 328 333 327 330 333 321 325 331 321 325 326 314 312 314 314 312 314 320 322 319 312 311 312 311 311 311 311 311 310 311 310 310 310 310 311
308 308 308 308 307 307 307 307 307 307 307 307 307 307 307 307 307 306 306 306 306 307 308 310 312 312 313 313 314 314 313 313 313 314 314 314 314 315 315 316 317 317 317 317 317 317 316 316 316 317 317 315 319 329 332 324 327 333 322 321 329 323 321 324 321 314 311 314 315 313 316 320 318 311 310 312 311 311 310 310 311 310 310 310 310 310 310 311
308 308 308 308 307 307 307 307 307 307 307 307 306 306 306 306 306 306 306 306 308 309 310 313 314 313 313 313 315 315 315 314 314 314 314 314 314 315 316 316 317 317 317 316 316 316 316 315 316 320 319 315 318 323 325 324 327 332 326 322 325 322 320 323 323 316 312 315 316 315 314 315 315 311 310 311 310 310 310 310 310 310 310 310 310 310 310 310
307 308 308 308 307 307 307 307 307 306 306 306 306 306 306 306 307 307 307 307 309 311 312 313 313 313 314 313 313 315 315 315 314 314 314 315 315 316 317 316 317 316 316 316 316 315 315 316 318 320 321 319 318 320 322 325 329 332 330 328 328 325 322 323 323 317 313 315 316 316 315 314 315 313 311 310 310 309 310 310 309 310 310 310 310 310 310 310
310 309 308 308 308 307 307 307 306 306 306 306 306 306 307 309 310 310 309 309 309 310 312 313 312 312 315 314 313 314 315 315 315 315 315 316 316 316 316 315 316 315 315 319 319 314 315 320 322 322 322 320 318 318 319 321 323 325 326 326 326 325 323 323 323 317 312 315 318 316 315 314 315 314 311 309 310 309 309 309 309 310 310 310 310 310 310 310
316 314 312 310 308 308 308 307 307 307 307 307 307 307 308 309 311 312 312 310 309 308 310 313 313 312 314 315 315 314 315 316 316 316 316 316 316 316 316 315 317 317 315 316 316 314 316 321 324 323 320 318 318 317 316 317 318 319 321 321 322 323 322 322 321 317 311 315 321 319 316 315 314 314 311 309 309 308 308 309 309 309 310 310 311 310 310 310
319 317 315 312 310 309 308 307 307 307 307 307 307 307 308 309 311 313 313 313 312 310 309 311 312 313 314 315 316 316 316 316 317 317 316 316 316 316 315 315 318 320 316 314 316 317 318 320 320 319 315 315 317 317 316 317 317 318 319 318 321 322 320 321 322 317 313 315 323 323 318 317 316 315 312 309 309 310 311 311 312 312 310 310 311 310 310 309
320 319 317 315 313 311 310 308 308 307 308 308 307 307 309 311 312 313 314 315 315 312 311 311 311 311 313 314 315 316 316 317 317 317 316 316 316 315 315 315 318 319 317 317 321 322 322 324 320 313 313 316 318 318 317 316 317 319 319 318 320 321 320 323 323 318 316 316 319 321 318 316 316 316 315 312 310 312 312 312 313 312 311 311 311 311 311 310
320 320 319 318 316 315 313 311 310 310 309 309 309 308 309 312 314 315 314 314 315 314 311 312 311 311 312 313 314 316 317 316 317 317 316 315 315 315 314 315 317 318 317 317 321 321 322 323 317 312 315 318 318 318 318 319 319 320 320 319 320 321 321 323 322 320 323 324 318 317 319 321 321 318 318 315 311 311 311 311 312 311 311 311 311 311 310 310
320 320 320 319 319 318 317 315 314 314 313 311 311 309 309 311 314 315 313 314 317 316 313 312 313 313 312 312 314 316 317 316 316 317 316 316 315 315 314 314 317 319 317 316 318 319 318 316 315 318 318 317 319 319 320 322 321 321 322 320 319 321 321 321 322 321 327 331 321 317 323 331 331 325 321 318 315 314 312 309 310 311 310 309 310 309 309 310
321 321 321 320 319 318 317 316 317 317 315 314 313 310 310 312 313 314 314 318 319 317 316 315 314 315 313 314 315 315 316 316 316 317 316 316 315 315 316 315 315 317 316 315 316 317 317 314 317 325 322 319 320 320 321 321 319 322 324 322 319 320 321 323 324 322 327 329 321 318 325 330 328 324 324 324 321 321 316 309 308 310 310 309 309 309 309 309
322 321 321 320 319 318 317 317 318 318 316 317 315 311 312 313 314 314 315 322 321 317 318 317 314 315 315 314 315 314 317 317 316 316 316 316 316 315 317 317 315 315 314 315 318 317 318 317 318 323 324 323 322 320 322 320 319 325 324 322 322 320 321 323 322 323 326 325 322 323 325 324 323 322 323 325 325 325 322 316 311 308 309 310 309 309 309 309
323 322 321 321 320 319 318 318 319 319 317 318 316 312 312 313 314 315 318 324 323 317 318 316 314 315 315 315 315 314 315 316 316 317 316 315 316 315 316 316 316 316 314 316 320 317 317 321 321 320 322 322 322 322 322 319 320 325 321 321 323 322 324 325 324 324 323 322 325 326 322 322 324 323 321 321 323 324 323 321 316 310 309 309 309 309 308 309
324 323 322 321 320 320 319 318 319 319 318 318 316 313 312 314 315 317 320 324 323 318 318 317 315 315 315 315 314 314 314 314 316 317 315 315 315 315 316 315 314 316 315 315 319 318 316 318 318 319 321 320 322 323 321 320 320 319 317 321 324 323 327 329 327 327 326 324 326 327 322 322 326 326 323 319 321 325 323 321 316 311 310 310 309 308 308 308
324 323 323 321 320 319 318 318 318 319 318 317 317 313 312 316 318 319 322 323 324 321 315 315 316 315 315 315 314 314 314 314 315 315 314 314 315 314 315 315 313 318 318 315 319 320 315 313 313 316 318 316 319 318 315 318 317 315 321 327 327 327 328 329 328 325 326 325 324 326 324 322 326 325 323 322 324 325 322 321 321 314 310 310 309 308 308 308
323 323 323 322 320 318 318 318 319 319 318 317 316 313 314 317 317 320 322 321 321 321 315 314 317 315 315 316 316 315 315 314 314 314 315 315 315 314 315 316 315 319 320 318 320 319 316 316 315 315 314 313 318 317 313 314 313 317 330 331 326 328 327 328 327 325 326 326 324 325 323 321 324 323 322 323 321 321 320 323 328 319 309 309 309 308 308 308
322 322 322 322 321 319 318 319 320 319 318 316 314 313 317 319 317 320 323 320 322 323 318 318 317 315 316 317 317 316 316 316 314 315 317 316 316 315 315 317 317 319 320 319 320 319 319 321 317 313 313 314 321 322 318 316 316 321 329 327 324 326 325 326 326 325 325 323 319 319 319 320 323 322 323 323 321 322 318 316 320 315 309 310 310 309 308 308
321 322 321 321 322 320 319 319 320 319 317 315 313 314 319 320 320 321 322 324 325 322 319 319 318 316 317 318 319 316 316 318 315 315 316 315 317 316 315 318 318 320 323 319 318 320 321 321 316 316 316 316 319 321 321 320 319 320 322 324 325 325 326 329 327 323 324 323 317 315 318 322 323 323 323 322 320 318 314 311 313 312 310 311 311 310 308 307
321 321 321 321 321 321 320 319 319 319 317 315 314 317 319 321 321 320 321 324 324 319 318 319 317 316 316 319 320 317 317 319 316 315 316 316 318 318 317 318 316 320 325 320 317 321 322 321 320 319 318 317 318 318 321 323 319 317 320 323 323 324 329 332 329 326 326 325 318 314 319 325 326 325 320 313 310 311 312 313 312 310 311 311 310 309 307 306
320 320 321 321 320 321 320 319 318 318 317 315 315 317 319 321 321 321 320 321 321 320 318 317 317 318 318 320 320 317 317 319 316 316 318 317 318 318 318 317 315 319 323 319 319 320 319 323 323 318 315 317 318 316 318 323 320 318 321 324 322 325 327 325 324 324 323 324 320 317 321 324 323 323 316 309 309 310 310 310 311 311 310 309 308 307 306 307
320 319 319 320 320 320 320 319 318 317 316 315 316 318 319 320 321 322 320 318 320 321 319 317 318 320 319 319 319 316 316 319 318 317 318 317 317 317 317 317 315 316 318 317 321 321 319 324 321 314 314 315 315 316 315 318 321 319 319 322 321 320 322 322 321 319 319 323 323 320 322 323 323 321 316 315 317 316 311 308 308 309 308 307 306 306 306 306
318 318 318 318 319 320 320 318 318 317 316 315 316 318 318 320 321 321 319 318 318 319 319 320 320 320 320 319 320 319 317 319 317 317 319 317 318 318 317 317 315 314 315 315 321 323 322 324 319 314 318 314 310 314 314 311 317 321 321 320 317 317 322 326 325 323 323 325 324 321 321 323 324 323 318 315 317 319 317 313 308 305 305 305 305 306 306 306
315 316 317 318 318 319 319 318 316 316 316 315 316 317 317 319 319 318 318 317 318 319 319 321 320 320 320 319 320 319 318 319 317 316 319 317 318 319 316 317 316 313 314 314 317 322 320 321 319 314 317 315 311 315 317 312 312 318 321 318 319 324 325 324 325 326 326 325 325 323 320 320 320 322 321 318 318 321 319 316 312 307 304 303 304 305 305 305
313 314 315 317 318 318 319 317 316 316 316 316 315 316 317 318 317 317 317 317 318 319 319 320 320 319 319 319 319 319 317 319 317 316 319 318 318 318 314 317 317 313 312 313 316 321 319 321 322 314 313 315 314 316 320 318 313 313 316 315 318 324 324 323 324 325 326 326 327 326 322 322 321 321 323 321 322 323 318 316 317 311 304 303 304 305 305 305
313 313 314 315 316 318 318 317 316 315 316 316 314 315 316 317 316 316 318 317 318 320 319 320 321 320 320 318 319 319 318 318 316 316 319 318 318 318 314 315 318 315 312 312 315 319 318 320 321 316 312 314 318 318 318 319 316 315 318 318 318 318 319 322 322 322 327 327 328 327 324 324 324 321 322 321 320 321 318 319 318 309 305 305 305 306 306 306
313 313 314 315 315 316 317 316 315 315 316 315 313 314 315 315 315 316 317 317 317 319 318 319 320 320 320 319 319 319 318 318 317 316 318 317 317 320 317 314 317 316 313 313 316 317 318 321 323 320 316 316 320 318 314 316 318 317 318 318 318 317 319 322 321 322 324 324 326 327 324 324 322 318 320 321 319 317 314 315 314 309 306 307 306 307 307 306
313 313 314 315 314 315 316 315 315 315 315 314 312 313 314 314 315 316 316 316 317 318 318 320 321 320 320 319 319 320 319 319 317 316 318 317 317 320 319 314 314 315 314 315 316 315 319 324 325 322 319 317 318 314 309 313 318 317 317 319 319 317 318 322 322 322 322 321 323 322 322 323 320 317 322 319 313 311 309 309 309 309 308 308 306 306 306 306
313 313 314 315 315 316 316 316 315 315 314 312 312 312 312 313 315 315 315 316 317 317 318 320 320 319 320 320 319 319 319 319 318 317 318 318 318 318 316 314 314 314 315 317 316 314 317 321 322 321 319 318 318 315 311 313 316 316 318 320 319 317 318 321 322 322 322 322 322 321 323 322 316 314 314 307 305 307 308 308 308 308 309 308 307 306 305 305
313 313 314 315 315 316 316 316 316 316 314 312 312 312 311 312 314 315 315 315 317 317 318 319 319 318 320 321 320 320 319 320 320 318 319 321 319 316 314 315 315 315 316 318 318 316 317 320 322 322 322 321 321 319 316 315 315 316 319 318 316 317 318 319 320 320 321 322 322 322 323 320 317 314 310 307 309 309 307 308 309 308 308 309 307 306 305 305
312 313 313 314 315 316 316 316 316 316 315 314 313 312 311 312 313 314 315 315 315 316 317 318 317 317 319 319 320 320 320 321 322 320 319 320 318 314 312 314 316 315 315 316 316 316 320 323 321 320 323 323 322 322 319 317 315 316 319 317 316 317 318 318 319 319 320 321 321 322 322 320 319 316 313 315 318 316 311 309 309 310 309 308 308 306 305 305
311 313 312 313 314 315 316 316 315 316 316 315 313 311 311 312 312 312 314 315 315 314 316 317 317 317 319 319 320 321 321 321 321 322 320 321 321 315 311 312 314 315 314 315 315 315 320 323 320 319 322 322 323 324 321 319 317 317 318 317 316 316 317 318 319 320 321 322 321 320 320 320 320 318 317 318 320 323 320 310 307 310 310 308 308 307 305 305
310 312 312 313 313 312 312 313 315 316 315 315 314 312 311 312 312 312 313 315 315 315 315 316 317 318 319 320 320 320 320 319 319 320 320 320 321 316 310 309 312 313 314 314 314 315 320 321 320 321 321 319 323 324 319 317 318 318 317 317 316 316 316 317 319 319 321 322 321 320 320 320 320 318 319 319 319 324 320 309 308 312 311 309 308 306 305 305
308 309 310 312 313 312 311 310 313 315 315 314 314 314 313 312 312 313 313 314 314 315 316 316 317 318 318 319 320 320 320 320 319 319 319 319 319 316 312 311 310 309 312 313 312 315 321 321 319 321 320 319 321 321 317 316 317 317 317 317 316 316 316 316 317 318 319 320 320 320 321 321 319 318 319 318 316 317 316 312 312 313 311 309 307 306 305 305
306 306 306 308 310 310 310 310 310 313 315 315 314 314 314 313 312 313 313 313 313 314 316 316 316 316 317 318 319 319 319 319 319 319 318 318 319 317 316 316 312 308 310 314 312 312 318 320 319 320 320 319 319 318 317 318 317 317 317 316 316 316 315 315 316 316 317 318 319 319 320 320 318 318 319 318 315 313 312 311 311 311 310 309 307 306 306 305
306 305 306 306 306 306 307 308 309 310 311 313 314 314 314 313 313 312 313 313 313 314 315 316 316 315 316 317 317 318 318 318 319 319 318 318 319 318 318 320 317 310 311 314 313 312 316 318 317 317 319 319 318 317 318 319 319 318 318 316 315 315 314 314 315 315 316 317 317 317 319 318 316 315 316 315 312 311 310 309 309 310 309 307 306 306 305 304
305 306 306 306 306 305 306 307 309 309 309 309 311 313 314 314 313 313 313 313 313 314 314 315 315 315 315 316 316 317 317 317 318 317 317 317 317 317 317 317 315 313 312 313 314 314 315 315 314 316 318 319 318 318 318 318 317 317 318 318 316 314 314 313 314 315 315 316 317 316 317 318 316 315 314 312 310 309 308 308 308 308 309 308 307 307 306 305
303 305 305 305 305 305 305 306 308 310 311 310 309 310 311 313 313 313 313 313 313 313 314 314 315 315 315 316 316 317 316 316 316 315 315 315 315 315 315 314 313 314 314 313 313 315 315 314 314 315 318 318 318 318 317 316 317 318 318 318 317 315 314 314 314 314 314 315 316 317 317 316 316 317 316 315 314 311 308 309 310 309 308 309 308 308 308 307
Wind_Speed
10 10 10 9 9 9 9 9 8 8 8 9 9 9 9 9 10 10 11 11 11 10 9 7 6 5 4 3 2 1 3 3 3 2 2 3 2 4 7 7 7 6 3 2 3 3 3 4 3 4 4 4 5 5 5 7 6 3 3 4 3 2 2 3 6 6 5 5 7 9 9 6 5 6 8 6 5 8 6 6 7 7 9 9 10 14 16 12
10 10 9 9 9 9 8 8 8 8 8 8 8 9 9 9 10 10 11 11 11 10 8 7 5 5 4 2 2 1 2 3 2 2 2 3 5 8 10 9 8 7 6 3 2 3 3 2 2 3 3 4 5 5 5 5 6 4 3 4 2 5 2 1 5 6 4 7 10 9 8 8 7 8 10 4 4 8 7 6 6 7 9 9 10 13 13 12
10 9 9 9 8 8 8 8 8 8 8 8 8 9 9 9 10 10 11 11 10 9 7 6 5 4 3 3 1 1 2 2 2 2 2 5 9 11 10 9 7 7 7 5 1 2 2 1 2 2 3 4 4 5 6 6 4 3 4 4 3 6 2 3 5 5 6 11 12 8 7 9 8 9 8 6 5 5 5 7 8 8 11 11 11 11 11 12
9 9 8 8 7 7 7 7 7 7 7 7 8 8 8 9 10 10 11 10 9 8 7 6 5 5 4 2 1 1 1 2 4 5 6 8 10 11 10 7 4 5 7 5 1 2 3 3 3 2 3 3 4 5 5 6 3 2 3 3 5 6 3 3 6 5 7 12 12 9 7 8 9 8 7 9 7 3 9 13 11 10 13 13 12 11 11 12
8 8 8 7 7 7 7 6 6 6 6 6 7 7 8 8 9 10 10 10 9 8 7 6 6 5 4 3 2 1 3 3 6 8 8 9 9 9 8 6 3 2 4 4 1 3 5 4 4 3 3 2 3 3 4 6 5 3 2 2 5 6 3 4 7 8 9 9 9 9 7 7 10 7 8 11 7 5 11 15 14 11 11 12 11 10 10 12
9 8 8 7 7 7 7 6 6 6 6 6 6 7 7 8 8 9 9 9 8 8 7 7 6 5 4 3 2 3 4 2 7 9 7 9 8 7 6 4 3 2 3 2 1 4 4 4 5 4 3 2 3 3 3 5 4 3 0 1 3 5 6 7 7 8 8 8 8 7 6 9 9 5 8 12 10 8 9 12 14 11 10 11 10 10 10 11
10 9 9 8 8 8 7 7 7 7 6 6 7 7 7 8 8 9 9 9 9 8 8 7 6 6 5 4 3 4 5 4 10 9 6 8 6 6 4 3 3 3 2 1 2 4 4 4 6 5 4 3 2 3 3 4 5 5 1 0 2 4 7 9 7 6 7 7 7 7 7 9 8 5 6 10 12 10 9 10 13 12 12 11 10 11 11 12
10 10 9 9 8 8 8 8 7 7 7 7 7 8 8 8 9 9 9 9 9 9 9 8 7 6 5 5 5 5 6 7 10 8 7 7 5 5 3 3 3 3 2 2 2 5 5 4 6 5 4 3 2 1 3 4 5 4 2 1 2 3 6 7 6 6 5 5 6 7 7 7 6 4 5 9 11 10 12 13 13 13 12 12 12 13 13 14
11 11 10 10 9 8 8 8 8 8 8 8 9 9 10 10 10 9 10 10 10 10 9 8 8 7 6 6 5 5 6 8 10 9 7 7 5 4 2 1 0 1 2 4 5 6 4 5 5 4 3 3 3 2 3 3 1 1 3 1 1 2 4 6 7 7 6 6 6 5 5 6 5 4 6 10 12 12 14 15 15 14 13 14 14 15 16 16
13 13 12 12 11 10 10 9 8 8 8 8 9 10 11 11 11 11 11 10 10 10 10 9 8 8 7 7 6 4 5 9 10 9 8 7 6 4 3 2 1 2 2 4 6 5 4 5 4 5 5 4 4 2 3 2 2 3 3 0 2 4 5 6 9 9 8 7 8 6 4 5 4 3 5 10 14 15 16 16 16 15 15 15 16 17 18 17
16 15 14 13 12 11 11 10 9 9 9 9 9 10 11 12 12 12 12 11 11 11 10 10 9 9 8 8 8 5 5 11 11 10 9 8 6 4 3 2 2 4 3 4 6 5 5 4 3 3 3 3 2 2 2 3 4 2 1 3 5 5 7 8 9 11 9 6 8 8 3 3 2 3 8 11 15 17 18 18 17 16 16 16 17 17 18 17
18 17 17 15 14 13 12 11 11 10 10 10 10 10 11 12 13 13 13 12 12 11 11 11 9 10 9 10 13 9 7 11 12 11 10 9 6 3 3 3 2 4 4 4 5 4 4 3 2 1 2 3 2 2 2 3 2 1 2 3 6 7 6 8 9 12 10 4 6 7 1 4 4 7 8 10 16 18 18 18 17 17 17 17 18 18 18 17
20 19 18 17 16 14 13 13 12 11 11 11 11 11 11 12 12 13 13 13 13 12 12 11 11 10 9 9 12 11 10 13 12 11 12 10 6 4 4 4 4 4 5 5 5 5 5 4 2 3 4 3 1 2 2 2 1 1 2 1 3 7 5 5 3 8 10 3 7 8 2 6 7 9 8 10 18 20 19 19 19 19 18 18 19 19 19 17
22 21 20 19 18 17 15 15 14 13 12 13 13 12 12 12 12 13 13 13 13 13 12 12 11 10 10 10 10 11 13 14 13 13 13 10 7 6 6 5 5 5 6 5 6 6 5 4 2 2 4 2 3 4 1 3 2 0 1 2 2 2 4 6 1 9 8 3 9 9 1 7 8 8 9 14 19 21 21 22 21 20 20 20 21 20 20 18
23 22 21 20 20 19 17 17 16 14 14 15 15 14 13 13 13 13 13 14 13 13 13 12 11 9 8 10 11 11 15 17 16 15 14 11 9 8 8 7 7 7 7 7 7 6 5 4 3 3 4 3 4 3 3 4 3 2 1 3 3 2 5 9 2 13 9 3 9 8 1 7 9 8 10 17 21 22 22 22 23 23 22 22 22 22 20 19
23 23 22 21 20 19 18 18 17 15 15 16 16 15 14 14 14 13 13 13 13 13 12 10 11 9 5 7 10 11 16 19 18 17 15 13 11 9 8 8 8 8 8 8 7 5 4 4 4 4 4 4 4 4 4 4 4 3 1 3 3 2 3 6 2 9 8 5 5 5 2 4 5 4 10 19 22 22 21 22 24 25 24 24 24 23 22 21
20 21 22 21 21 20 19 19 18 17 17 17 16 15 15 14 14 14 13 12 12 12 11 8 8 8 6 7 9 12 17 19 17 17 15 13 12 10 8 9 9 10 9 7 6 5 5 5 5 3 2 2 3 5 4 2 3 3 0 2 4 3 2 3 4 4 6 6 5 5 4 7 6 2 11 20 22 22 22 24 26 26 26 26 25 24 24 24
17 18 20 20 20 19 19 19 18 17 17 16 16 15 14 14 13 13 12 12 11 9 7 8 7 3 8 13 13 13 15 17 16 15 15 14 12 10 9 9 9 10 8 6 5 6 5 3 4 1 2 1 2 5 3 5 4 3 3 2 3 3 3 4 4 3 7 4 5 6 5 11 11 6 12 19 21 23 25 25 25 26 27 27 27 27 26 26
16 16 17 18 18 18 19 18 17 16 16 15 14 13 12 11 11 11 11 13 13 8 3 12 16 5 3 12 16 13 11 14 15 14 14 14 13 12 10 8 9 10 9 5 3 6 7 3 5 2 1 4 5 7 8 8 8 6 6 5 4 4 4 5 5 6 9 4 5 8 8 11 13 10 12 19 23 25 26 23 21 24 27 28 29 29 29 28
15 15 16 17 16 17 17 16 15 15 15 14 13 11 9 8 5 6 12 17 20 17 8 11 21 13 1 4 14 14 10 12 15 16 15 15 15 14 11 10 9 7 6 5 3 5 6 4 2 5 8 9 9 10 9 6 6 5 4 3 4 4 5 5 5 6 7 5 5 9 9 11 12 11 12 16 20 22 23 22 22 25 28 32 33 32 32 30
13 14 15 15 16 16 15 15 15 15 15 13 13 11 9 9 6 3 9 16 22 25 18 10 16 19 8 2 8 13 12 13 15 17 16 17 17 14 12 11 7 3 3 6 6 3 5 4 6 11 11 9 8 8 7 4 3 2 2 3 5 4 6 7 4 5 3 4 6 6 7 11 11 11 13 12 13 19 27 26 27 30 31 34 35 34 33 30
15 15 14 14 15 15 15 15 15 16 15 14 14 13 10 11 10 7 6 8 15 22 25 20 18 20 15 8 8 12 12 10 12 18 19 20 19 14 12 10 4 3 4 5 6 3 2 3 12 14 7 5 5 6 6 5 5 4 2 2 5 4 4 7 5 3 1 4 5 4 4 9 11 10 12 13 16 22 31 33 34 35 35 36 36 36 35 32
18 17 15 15 14 14 15 15 15 17 16 15 15 14 12 11 12 11 6 5 10 16 22 25 26 27 23 16 13 15 15 10 12 20 23 23 21 16 14 10 4 4 5 5 6 4 4 6 14 13 7 7 4 4 6 4 3 5 4 3 5 4 2 4 5 3 1 2 3 3 4 7 8 8 10 18 23 23 26 31 35 37 36 37 38 38 38 37
20 19 18 17 15 16 15 15 16 16 15 16 15 14 14 12 11 9 6 4 7 11 16 21 25 30 29 22 18 20 20 14 13 20 26 27 22 15 13 11 6 5 5 9 9 7 7 6 6 7 9 8 6 4 6 4 4 5 6 6 6 5 6 6 4 3 3 4 2 2 6 6 7 10 11 11 14 18 20 22 29 36 36 35 34 37 39 39
23 22 20 19 18 17 16 17 18 16 16 17 15 15 15 12 9 5 2 3 5 6 10 14 18 24 28 25 20 20 18 16 17 20 26 30 25 13 9 11 7 4 7 9 7 7 9 6 3 7 7 7 7 5 6 7 5 5 6 10 10 8 8 5 1 4 4 5 4 2 4 6 5 9 11 4 3 10 15 16 25 33 33 33 33 36 39 38
24 23 22 22 19 18 18 18 17 16 18 18 15 15 14 11 7 4 2 2 4 4 3 9 12 12 19 23 22 17 9 12 19 22 24 29 27 15 7 7 5 4 7 6 3 4 5 7 6 7 7 7 7 5 6 8 5 4 6 10 11 8 7 5 3 2 1 4 4 2 2 7 6 6 9 4 4 9 10 11 21 28 30 34 36 37 39 39
25 24 23 23 21 22 22 18 16 18 18 15 14 16 14 12 8 4 3 4 5 5 7 8 9 9 12 20 28 19 2 7 15 20 26 28 26 16 7 6 4 4 6 5 3 3 4 8 7 6 7 6 6 5 6 8 7 4 5 7 9 8 7 6 6 4 3 3 4 3 3 5 8 6 6 6 7 9 10 11 17 23 28 33 36 37 39 40
28 27 25 24 24 25 24 19 18 19 16 12 14 17 14 14 11 6 4 2 3 5 6 6 8 11 11 19 32 20 5 11 11 15 29 30 26 15 6 9 7 6 9 8 4 4 4 9 10 9 7 5 7 5 7 10 6 6 3 6 7 6 5 4 5 3 1 2 4 4 1 3 9 5 1 2 7 9 13 15 17 21 27 32 34 35 36 38
30 30 29 26 24 25 24 23 21 17 13 11 13 15 16 18 12 6 3 3 2 4 3 6 8 9 12 19 26 16 8 8 4 11 26 27 25 13 2 8 9 6 10 9 7 3 2 6 10 10 7 7 6 2 7 11 6 4 6 7 6 5 5 5 4 3 2 1 6 6 3 4 8 3 2 1 4 9 12 13 13 17 26 31 33 33 34 36
30 31 31 28 27 28 26 28 24 16 15 15 14 18 22 18 9 4 3 3 1 2 3 7 7 9 16 15 11 7 5 3 4 14 17 13 19 12 1 6 6 4 4 7 6 3 2 1 4 5 4 5 5 3 3 8 8 8 7 6 7 6 5 4 3 4 1 4 6 9 9 6 7 2 4 3 4 8 9 9 9 11 20 27 31 33 35 36
29 29 30 30 33 33 31 33 28 21 20 19 19 26 25 12 3 3 6 1 2 2 4 3 3 8 15 12 6 5 3 1 7 14 9 4 9 7 3 4 3 3 1 6 5 4 4 0 1 2 4 6 8 5 3 2 7 8 5 5 4 4 4 4 4 4 2 6 5 8 10 9 9 5 4 5 5 5 6 7 9 8 14 23 29 33 35 36
29 29 30 33 36 37 36 35 29 25 24 21 26 31 20 4 2 5 4 2 1 4 5 4 3 6 10 8 6 7 4 2 7 9 7 5 6 8 7 7 5 3 3 6 4 3 3 4 2 1 3 6 7 4 4 4 2 4 5 6 4 2 2 2 3 0 4 6 4 4 5 5 10 7 5 8 9 8 9 12 12 10 13 21 27 32 35 37
29 30 32 35 38 41 41 35 27 27 26 25 30 26 11 2 6 8 7 3 2 3 3 3 4 7 11 7 4 5 3 2 6 6 4 5 5 8 7 5 5 3 2 6 4 2 3 5 1 1 3 8 10 6 3 1 3 6 6 7 5 2 1 3 4 2 4 5 4 1 3 3 6 4 9 13 12 11 12 16 17 15 14 18 23 30 34 37
27 30 34 36 37 41 42 37 31 29 29 32 28 14 5 5 6 8 11 8 2 1 2 3 6 7 8 6 4 7 4 3 5 5 3 5 5 6 5 6 7 2 3 4 3 6 4 6 5 7 4 10 12 9 7 5 5 7 5 6 6 6 5 4 4 4 4 3 4 1 2 4 2 2 7 8 8 10 15 19 19 16 16 16 20 27 32 36
25 28 34 37 37 39 43 42 35 30 34 35 20 7 7 7 4 6 10 8 2 2 2 3 7 7 5 3 3 7 5 3 5 5 3 6 6 6 7 8 9 5 4 4 2 4 5 6 7 6 3 11 12 7 7 7 2 4 3 4 5 6 6 2 3 5 3 2 3 3 4 5 4 5 7 5 7 8 14 18 17 17 16 15 19 27 32 36
22 24 32 40 42 40 42 45 39 34 39 32 11 6 9 7 6 6 6 8 7 4 4 3 4 5 6 3 3 6 4 1 5 5 3 4 4 6 6 6 10 10 7 7 2 2 3 5 5 1 1 5 8 5 6 5 3 2 3 4 4 4 5 2 3 1 3 3 4 3 6 6 3 7 7 6 8 8 8 12 14 15 14 15 21 27 33 36
21 20 25 37 43 40 42 46 41 39 42 26 8 8 8 6 8 7 6 11 12 9 7 4 3 6 7 5 4 7 4 2 5 5 4 3 3 7 7 5 9 15 14 9 3 3 5 4 4 2 2 4 2 4 4 3 4 5 4 6 2 2 2 2 2 2 2 4 5 3 7 6 2 6 3 2 6 10 8 9 11 11 13 18 23 28 32 35
20 18 21 31 37 38 42 43 41 44 38 15 8 11 6 6 11 9 7 10 12 11 8 7 7 7 8 7 6 7 7 5 6 6 5 3 5 8 10 6 8 17 20 13 4 3 4 3 4 1 2 3 3 4 1 5 4 4 4 6 4 1 1 2 2 2 1 3 5 2 5 6 6 6 1 3 9 12 11 10 7 10 16 22 24 27 31 33
16 15 19 27 32 35 40 41 44 44 26 7 8 10 5 7 10 11 12 11 9 10 10 10 8 5 7 9 6 7 9 8 8 7 5 5 5 6 12 10 7 14 21 16 7 3 3 3 3 1 0 1 2 3 5 0 3 4 3 4 2 2 3 3 3 3 3 3 4 3 3 5 7 7 6 10 12 12 12 10 8 14 22 24 25 28 31 35
14 11 15 24 28 30 37 41 42 32 12 6 10 7 3 6 7 10 16 12 7 8 9 10 8 5 6 7 5 6 8 7 9 8 5 6 5 4 9 11 5 8 16 17 11 3 2 3 3 2 2 1 2 4 8 9 6 4 4 5 3 1 2 1 1 2 4 2 3 3 7 8 4 5 9 12 12 11 12 10 10 19 24 24 26 30 33 36
16 9 11 18 20 25 35 35 25 14 6 7 10 6 4 4 4 10 14 9 5 5 5 6 8 7 6 7 6 5 6 5 7 7 4 6 6 3 8 15 11 7 8 9 8 5 3 3 3 1 1 3 5 5 6 9 9 7 8 9 8 6 4 2 3 2 3 3 4 3 8 11 4 3 4 7 7 9 12 12 12 18 22 24 29 32 33 35
17 9 10 13 15 23 32 22 9 8 7 8 7 5 4 1 2 8 11 7 3 2 2 2 6 8 7 8 8 6 7 6 7 7 5 8 9 5 10 19 19 16 12 6 7 7 4 3 3 3 3 5 6 5 3 3 3 3 3 5 7 7 7 6 6 4 3 3 3 3 5 9 3 2 2 3 4 6 10 12 14 19 19 21 27 30 31 33
20 16 12 10 15 28 27 10 6 9 7 8 7 4 4 2 1 5 8 9 5 2 2 2 4 7 6 5 7 9 9 7 8 10 7 6 9 7 11 19 19 15 10 3 3 5 4 2 4 2 1 2 4 5 3 3 3 1 2 3 6 9 9 6 4 3 3 6 4 3 6 9 3 1 2 3 5 7 9 12 16 19 18 18 23 26 29 31
23 22 16 11 19 31 22 5 6 9 8 11 8 6 9 6 4 6 8 10 7 3 3 3 2 4 3 2 4 8 11 8 7 11 9 4 6 7 10 18 19 12 8 6 6 9 7 3 3 3 1 3 3 3 2 1 1 4 4 4 7 10 9 3 1 2 3 8 8 5 10 10 2 3 3 3 4 5 8 10 13 17 18 18 21 24 27 31
16 17 16 19 30 36 25 13 10 8 9 13 8 7 11 6 7 11 9 9 10 4 2 3 3 3 1 1 1 2 7 7 5 8 8 4 3 3 7 16 18 14 12 11 11 13 8 3 5 6 6 8 6 6 5 3 2 2 3 6 9 11 12 7 2 4 7 7 8 7 14 10 2 2 3 3 4 4 7 8 10 15 19 19 21 23 27 31
8 8 9 16 28 32 28 26 20 9 8 12 7 7 12 8 8 13 10 9 13 11 5 2 3 5 3 3 3 3 6 5 1 3 5 5 3 1 4 10 14 14 13 12 14 12 3 2 9 12 11 13 10 5 4 7 7 7 9 11 12 12 12 9 5 8 7 2 5 13 16 14 11 7 5 6 4 4 7 7 9 15 18 20 22 23 27 31
6 4 5 8 13 16 16 19 18 10 10 13 7 7 14 13 8 9 11 10 13 15 9 2 4 6 5 7 8 7 8 6 2 3 5 6 3 2 1 3 6 11 11 10 14 10 3 3 11 13 15 17 10 3 6 10 12 14 14 13 13 12 12 12 12 12 6 4 10 16 11 13 21 15 11 12 7 5 7 10 15 18 19 21 21 23 26 30
7 5 8 10 7 6 7 11 14 12 13 14 8 7 14 17 11 8 10 11 12 14 9 4 8 11 11 12 9 6 9 8 7 8 7 5 3 1 1 0 2 5 5 6 8 6 4 7 9 9 15 19 11 5 6 8 8 9 12 13 14 15 16 18 19 16 10 8 17 16 9 14 23 17 12 11 9 11 14 16 19 19 19 20 21 24 28 31
11 8 9 8 5 3 3 6 10 12 13 13 10 10 13 17 17 13 10 7 7 11 12 8 12 16 16 14 9 7 9 8 9 11 8 6 5 4 4 2 2 3 3 4 3 2 3 5 4 6 11 17 13 6 6 7 4 5 11 13 15 18 21 21 19 18 16 15 20 18 13 19 21 12 9 11 14 18 16 15 17 17 18 20 22 26 30 32
13 8 7 6 6 6 4 2 5 6 8 9 8 10 13 15 18 15 11 11 9 10 14 15 16 16 16 15 12 11 13 12 13 13 9 8 6 5 6 5 4 4 3 4 2 1 3 2 1 4 5 13 14 8 7 8 7 7 9 12 17 18 17 15 15 15 15 16 20 19 18 20 13 6 8 13 13 12 11 13 18 19 19 19 21 26 30 31
18 14 9 3 2 5 4 2 3 4 4 6 5 6 10 15 19 15 11 16 18 13 15 21 21 15 13 16 15 16 20 21 20 16 13 14 13 8 6 4 5 5 4 4 4 3 4 2 2 3 4 10 10 8 8 7 5 6 12 18 20 14 9 11 14 14 14 16 18 16 15 18 10 5 5 9 10 11 13 16 19 20 21 21 22 26 28 30
22 22 18 8 2 5 4 0 2 4 4 5 7 7 7 9 11 11 10 14 20 20 20 23 21 12 10 15 20 27 32 27 21 16 12 17 18 14 11 9 8 8 6 4 3 3 5 4 2 3 5 8 5 6 7 4 3 7 14 20 18 12 11 13 13 15 17 15 13 13 15 18 11 4 5 7 8 11 14 18 21 23 24 24 25 26 26 28
Wind_Direction
206 209 212 215 215 216 214 211 207 203 201 199 195 191 190 189 187 185 183 181 180 183 188 195 197 202 208 213 226 228 228 224 228 255 234 231 217 136 127 118 104 95 95 131 158 163 137 100 93 85 74 68 49 45 60 44 36 63 94 81 101 154 161 183 185 193 168 168 191 188 182 157 141 136 135 128 134 139 131 127 132 149 159 168 174 172 180 184
193 196 198 199 201 204 204 204 202 201 200 199 197 196 196 193 192 190 186 185 185 189 195 201 207 213 219 232 251 247 236 240 232 229 226 211 165 142 133 121 100 83 77 91 160 174 155 104 95 89 75 83 58 51 63 41 46 64 97 91 164 198 193 205 177 189 171 160 168 169 177 171 160 151 150 159 148 140 132 126 138 160 170 176 174 173 185 189
184 186 188 189 193 196 197 199 198 199 197 196 197 196 197 195 194 192 189 189 191 198 203 208 217 221 230 247 261 289 253 232 203 196 174 155 150 148 144 131 101 75 63 58 119 169 174 122 114 108 81 83 61 65 61 38 43 47 84 88 231 204 154 63 122 172 184 161 150 144 164 169 163 159 166 178 166 171 182 169 173 187 189 187 181 179 186 192
182 182 184 186 188 189 192 195 195 197 196 195 194 193 196 194 193 192 192 196 201 208 212 215 223 225 238 247 268 304 255 180 167 138 125 138 149 156 155 149 115 64 49 44 81 137 131 110 108 103 89 85 59 75 52 29 36 34 89 138 204 178 130 93 107 122 155 153 147 140 140 154 165 174 183 163 142 244 232 207 209 214 207 199 189 185 186 193
185 185 186 187 188 188 190 194 196 198 202 202 197 196 195 194 195 195 198 205 210 215 217 222 227 230 241 239 276 211 122 118 157 136 125 142 152 162 168 176 173 30 27 32 92 135 120 109 101 84 82 83 45 71 41 31 62 61 47 162 168 160 151 146 125 119 140 149 148 144 139 160 174 185 190 174 166 239 235 224 225 224 215 207 198 194 190 192
194 195 194 196 196 196 197 198 201 203 207 209 208 207 204 204 204 204 209 213 216 220 221 227 228 234 241 239 268 193 160 135 160 144 136 153 157 169 177 194 217 295 341 13 220 159 130 98 86 74 71 65 36 72 57 33 65 99 351 33 134 164 159 156 150 141 152 159 160 164 168 171 173 193 203 199 213 236 239 228 220 212 203 203 202 203 200 196
204 204 203 204 204 204 205 205 210 212 214 215 216 216 216 217 215 215 218 218 221 224 226 230 229 236 244 245 259 224 224 207 169 158 153 162 167 180 186 232 249 280 287 289 228 172 144 93 78 78 78 74 67 75 63 52 78 105 152 341 99 146 153 159 171 170 174 177 178 172 170 176 180 197 214 218 227 230 225 212 206 202 198 205 211 213 210 200
210 209 209 211 212 212 212 213 215 218 222 224 224 224 223 225 224 224 224 224 226 226 230 230 229 235 242 248 257 248 237 201 175 169 165 171 179 191 211 253 256 281 251 207 182 163 144 96 82 88 88 81 113 111 74 65 58 80 143 216 109 147 164 169 187 197 200 196 183 174 182 197 194 200 228 227 222 211 201 197 198 201 206 215 221 222 214 204
214 213 211 212 212 214 218 220 222 223 226 228 230 231 230 229 228 229 229 229 229 228 231 230 231 232 236 245 246 258 241 195 177 171 169 179 180 186 200 196 183 5 203 188 169 168 151 104 89 97 113 119 118 97 71 67 12 112 140 159 120 177 186 191 208 216 223 219 199 195 219 225 211 218 251 236 217 203 196 195 200 207 214 219 222 221 212 206
220 217 216 216 213 213 216 220 225 229 230 231 234 235 236 235 233 233 232 233 233 232 232 230 232 228 232 239 227 243 228 186 175 175 174 177 173 166 150 129 94 98 170 192 169 165 149 116 94 97 104 106 104 71 38 80 146 144 124 223 254 244 245 226 225 229 228 228 217 204 222 243 220 200 242 229 207 200 197 198 204 211 217 220 218 213 208 206
224 222 221 220 219 218 219 221 225 229 234 236 237 238 239 239 238 236 235 236 237 236 235 234 234 231 232 228 217 221 202 183 179 180 179 174 168 163 158 142 114 124 153 185 171 166 151 125 100 108 105 95 92 63 59 100 127 133 63 308 284 289 277 245 230 230 217 223 225 204 216 272 197 192 239 223 201 201 201 202 207 211 215 217 213 208 207 207
228 227 226 225 224 225 226 228 228 230 235 238 240 242 242 241 240 238 236 237 239 239 239 237 236 235 234 231 230 230 204 189 185 183 181 177 178 188 190 180 162 148 145 159 176 175 151 141 122 119 133 136 124 55 92 113 108 115 56 317 301 345 315 244 233 222 201 205 213 184 276 292 215 220 239 216 199 199 201 205 207 209 214 214 209 206 207 210
232 232 232 232 231 231 232 234 236 236 237 241 242 243 245 244 242 240 237 235 236 238 238 238 238 237 236 238 240 231 208 197 192 189 185 186 204 220 208 193 191 177 157 159 175 168 150 155 153 120 123 131 145 128 130 100 81 249 57 43 308 357 333 261 244 200 185 197 180 158 269 274 245 238 219 198 197 194 197 206 208 208 212 212 209 209 209 211
234 236 237 237 238 238 239 240 241 241 242 244 244 244 246 245 244 241 238 235 234 235 235 235 235 234 233 241 245 226 209 205 203 197 194 208 229 222 208 197 196 189 177 172 165 165 162 166 174 136 127 123 135 135 78 16 48 289 7 23 356 357 283 298 338 163 164 214 177 147 241 262 268 256 205 195 199 197 199 204 208 210 212 213 211 211 213 214
235 236 238 240 242 243 244 245 246 246 245 245 245 245 244 243 243 238 236 234 232 233 231 230 228 226 234 244 241 223 211 211 211 208 210 226 233 219 210 202 201 195 187 185 177 180 183 183 189 146 132 133 125 111 24 355 8 32 30 311 334 167 260 309 243 170 165 199 180 151 234 264 277 266 204 193 198 200 205 207 209 212 213 214 214 214 217 218
237 237 238 240 242 245 247 248 249 248 245 246 245 244 242 240 238 234 232 230 229 229 226 225 220 213 232 247 233 221 217 216 214 214 217 220 219 215 209 203 201 197 191 190 196 200 194 178 152 127 135 143 120 90 47 10 339 358 117 247 271 185 267 320 278 195 172 139 186 201 229 260 290 268 195 191 196 201 206 211 212 214 216 215 216 217 218 221
235 236 238 239 240 243 246 248 248 245 244 245 243 241 240 236 233 230 226 222 221 220 216 214 211 215 240 243 227 225 222 218 215 215 214 213 215 215 211 203 192 193 196 194 200 194 177 156 137 138 117 103 105 93 64 336 296 315 310 233 245 205 220 292 304 244 168 140 200 227 239 247 271 255 187 192 198 202 209 216 216 215 216 217 219 220 221 224
231 232 234 236 238 240 242 245 244 241 242 242 239 238 235 233 230 225 219 214 205 199 208 202 180 208 247 231 223 228 226 218 213 211 209 208 207 204 204 203 192 189 185 181 188 168 158 129 115 122 14 37 104 109 144 224 207 205 195 211 256 240 222 242 277 223 166 166 206 201 240 253 265 262 204 202 202 207 217 221 219 217 216 218 222 222 223 225
231 229 231 232 235 237 240 241 237 235 236 235 234 231 229 228 224 223 215 202 189 176 200 203 189 169 252 223 218 223 222 209 204 203 203 200 190 184 188 189 183 179 165 156 179 162 151 95 82 99 227 222 203 166 189 207 179 173 178 168 195 232 250 233 253 228 177 174 221 205 223 243 254 255 226 213 208 214 226 228 224 222 220 220 223 225 225 226
237 232 230 230 230 232 236 235 230 228 227 228 225 218 216 204 194 225 216 207 206 205 212 208 204 205 212 207 211 213 204 192 196 197 193 191 181 173 173 168 162 168 166 157 175 171 149 122 145 202 214 211 204 195 202 194 155 148 144 162 202 222 265 253 266 262 180 167 241 220 222 242 246 253 249 225 211 218 229 231 229 225 223 223 223 225 226 226
239 235 231 228 226 228 230 227 223 222 221 221 215 208 205 191 182 227 215 221 228 224 227 226 210 213 214 173 203 207 192 182 192 193 188 186 178 169 169 163 147 161 199 149 127 136 142 150 215 223 216 204 199 196 201 192 169 184 168 227 253 225 254 256 254 281 181 173 260 241 229 253 250 252 259 229 199 218 225 224 228 227 226 226 224 225 225 225
235 234 230 226 224 226 226 222 217 218 219 218 213 212 214 210 214 231 229 248 252 238 233 231 223 220 216 209 210 205 190 179 189 190 185 180 179 181 175 162 152 169 170 127 106 119 164 206 235 230 196 155 179 179 181 205 215 231 217 248 267 239 267 278 271 298 163 178 262 272 239 258 258 253 252 225 208 225 228 225 230 229 226 224 223 223 223 221
230 228 225 223 222 225 226 222 218 217 217 218 218 216 219 221 222 233 248 276 274 254 238 233 232 228 219 216 215 204 195 188 187 187 184 180 183 190 177 162 174 153 142 156 149 162 194 237 243 227 164 142 199 178 156 187 229 224 214 218 252 242 233 276 284 301 290 223 255 286 281 269 266 264 252 234 227 235 238 234 236 234 230 229 227 225 223 220
227 225 225 223 220 223 224 222 221 220 219 221 222 216 218 222 218 228 246 268 279 260 244 238 233 230 225 219 213 206 204 205 197 188 186 183 180 184 183 177 166 140 172 191 181 192 216 242 237 186 161 172 199 188 161 177 240 235 212 207 229 232 214 235 282 318 329 329 333 331 305 278 250 250 254 242 228 239 244 236 236 236 234 235 231 226 224 222
226 225 226 223 221 223 224 225 224 223 224 226 222 214 215 216 210 216 241 285 288 263 250 237 230 233 227 219 212 204 206 218 215 201 192 189 183 172 182 187 170 171 201 193 192 227 239 240 135 127 158 179 182 202 190 182 218 257 224 208 216 219 218 227 340 19 359 326 326 15 298 279 257 244 254 263 201 238 243 231 233 235 231 231 229 225 222 221
228 227 225 223 220 216 219 227 228 225 227 229 223 212 211 203 191 188 111 19 288 236 207 209 213 224 215 207 198 185 204 232 219 209 199 195 191 176 162 179 174 199 191 169 197 248 230 211 164 132 155 171 183 221 216 183 184 256 236 204 204 200 196 192 148 98 272 264 295 55 186 271 283 240 238 226 204 244 247 237 238 235 228 225 226 225 221 218
232 229 227 225 219 212 215 223 225 222 222 227 219 208 202 185 169 154 94 11 280 189 152 180 189 186 195 195 184 172 195 203 193 207 201 193 194 187 180 183 166 197 169 136 234 254 166 186 189 157 151 161 186 223 220 176 163 240 245 180 178 183 192 194 169 185 228 248 316 11 121 269 279 252 226 189 199 253 260 253 248 236 228 225 224 224 221 218
233 230 228 227 223 219 218 220 224 222 218 217 210 201 189 173 163 132 104 309 258 144 144 174 167 173 181 183 182 176 137 149 158 200 195 190 194 194 209 199 173 181 175 158 225 255 142 175 195 182 175 188 200 214 183 156 168 244 215 136 148 163 169 152 140 175 304 21 296 300 111 263 271 265 329 177 202 247 255 249 248 236 229 226 223 222 219 217
232 231 226 223 227 228 221 220 221 215 207 202 194 189 175 163 152 106 98 236 190 111 143 162 151 167 160 166 183 179 137 147 147 183 185 189 196 196 228 202 184 176 191 199 217 231 131 192 197 178 183 207 203 207 164 163 190 202 132 93 76 76 80 78 105 122 40 337 240 238 176 242 268 229 98 62 205 233 245 247 251 239 231 227 222 219 217 215
235 236 230 218 216 219 217 219 217 200 194 193 183 172 163 154 132 105 192 221 189 117 133 158 166 169 154 153 186 184 140 152 125 152 169 186 195 196 138 173 173 144 207 253 241 244 339 235 202 184 193 188 148 83 153 177 166 132 105 65 50 34 40 46 51 83 31 266 227 209 189 206 273 254 159 189 205 217 231 248 262 243 228 225 221 217 215 213
237 239 237 224 215 212 213 217 213 197 191 188 177 164 154 144 103 173 202 253 357 153 128 162 179 157 158 158 177 180 139 118 141 149 158 165 180 190 154 150 151 112 274 279 270 308 333 329 220 212 179 134 107 77 31 136 140 121 90 82 76 349 12 22 356 50 236 256 224 207 192 192 241 256 212 239 259 235 219 235 257 243 218 218 218 217 215 213
236 235 236 232 225 216 216 222 215 199 192 180 172 165 150 133 219 202 209 45 325 196 159 181 181 154 166 169 181 176 141 149 172 165 166 162 173 190 193 187 170 145 241 239 243 319 277 240 256 307 188 157 127 97 38 24 108 118 98 111 118 314 3 343 305 63 231 260 270 217 179 205 243 246 235 257 270 249 224 230 248 255 233 221 218 217 214 211
235 234 234 234 232 223 220 225 216 199 189 173 170 167 149 184 203 195 201 188 207 202 143 140 146 154 162 167 193 173 136 180 181 177 179 161 182 210 223 225 188 163 193 195 195 199 257 293 284 101 250 197 167 160 171 213 192 170 144 145 161 168 175 250 261 271 258 269 302 221 164 250 277 259 227 235 249 248 244 247 253 261 255 238 227 218 212 208
230 233 236 235 236 231 225 223 213 200 186 171 170 173 174 205 192 181 201 213 222 95 103 122 125 145 166 178 199 167 162 229 174 159 164 149 175 216 235 243 220 177 99 149 174 181 218 291 205 178 205 190 184 190 177 141 166 190 164 151 172 168 173 212 214 229 254 280 298 261 179 206 215 260 239 243 269 261 254 257 259 265 264 250 231 214 207 207
226 232 235 232 232 232 228 222 213 202 186 173 171 187 193 199 195 187 204 211 204 72 56 114 118 137 195 237 244 184 179 219 169 146 162 172 191 203 202 216 204 162 128 176 218 165 199 269 231 207 174 170 184 193 146 112 147 220 136 134 198 187 173 206 202 184 180 286 283 218 223 223 207 258 259 263 289 265 253 260 262 263 258 239 219 207 205 207
229 232 232 230 227 228 228 221 213 201 186 174 173 209 200 204 191 181 187 185 188 145 104 101 104 146 202 223 245 213 198 142 149 157 200 203 224 209 202 216 195 181 179 182 190 152 179 278 269 262 359 185 186 170 143 147 184 179 141 185 212 169 153 203 261 73 98 254 263 199 242 283 307 275 253 219 249 263 268 267 257 253 244 222 213 206 204 206
233 232 227 227 228 231 227 218 210 197 185 178 193 206 202 217 193 175 175 180 185 164 139 173 186 172 191 201 213 204 190 142 153 173 198 195 242 209 199 228 198 194 202 195 206 199 175 261 280 146 209 250 176 112 82 55 119 129 183 201 174 67 97 136 250 348 45 255 266 214 241 271 271 271 308 116 231 257 268 259 252 249 230 215 214 207 205 207
234 238 233 227 228 231 226 216 205 193 185 182 214 206 200 214 198 186 178 173 173 169 175 207 199 177 184 194 204 188 175 177 177 186 187 187 244 203 179 206 207 202 207 201 220 251 170 236 287 115 193 285 42 118 97 15 69 123 175 177 138 135 217 124 172 228 199 251 277 262 251 254 217 224 281 155 215 234 242 240 245 242 224 216 213 207 205 206
229 234 241 233 225 226 226 216 200 192 188 187 210 208 208 207 203 193 184 178 171 172 195 213 199 185 192 186 180 176 184 188 173 177 188 189 232 203 177 188 205 206 202 191 196 227 157 206 270 341 281 331 36 168 192 183 40 60 107 152 130 135 182 171 168 179 166 225 275 300 290 257 218 191 185 204 212 215 224 226 230 236 228 218 211 206 204 205
218 221 250 238 222 223 223 210 196 191 193 206 206 206 188 193 207 199 192 192 186 180 202 211 192 184 196 190 179 175 189 192 175 183 206 191 206 230 191 183 182 197 193 189 196 189 130 209 241 329 350 195 193 205 191 180 171 155 153 171 189 132 121 164 201 145 136 176 231 264 277 269 231 170 185 206 210 207 212 213 223 237 232 221 215 212 209 208
209 218 257 234 220 219 210 199 194 196 203 214 216 215 192 181 193 198 197 202 207 199 209 206 194 189 177 181 197 187 178 182 182 191 216 201 203 239 202 188 176 157 160 185 209 196 172 196 181 163 239 210 229 251 216 193 182 180 187 189 186 170 145 172 232 197 145 195 189 188 271 271 235 165 195 205 205 209 212 212 226 240 234 225 222 218 215 213
203 219 245 217 206 203 195 190 199 202 204 218 218 209 197 152 148 189 195 202 220 253 262 212 200 199 183 184 193 177 167 181 189 193 214 213 207 210 199 190 176 156 147 174 214 192 158 132 154 197 213 214 244 284 268 201 156 144 199 191 174 175 174 182 217 208 158 227 200 123 275 274 240 168 229 237 238 241 233 224 235 247 242 233 229 222 217 216
203 220 229 206 199 194 187 192 213 196 213 226 213 210 217 215 121 173 188 198 199 185 209 235 211 204 201 186 182 175 177 188 195 197 211 222 215 215 195 182 170 156 152 173 218 171 140 149 196 223 311 301 300 318 347 34 85 116 245 177 171 198 199 188 201 173 161 222 199 126 258 264 283 288 266 279 280 273 257 237 238 251 252 241 235 226 218 216
209 219 216 206 204 194 186 197 203 195 216 215 205 206 212 223 218 190 187 197 199 157 161 216 225 209 214 151 160 183 187 192 205 205 208 214 215 214 186 175 170 166 175 190 178 167 170 184 180 176 307 323 324 303 285 317 181 200 220 191 190 201 196 178 77 109 210 221 175 165 247 250 309 325 307 336 319 283 264 249 245 254 255 247 239 228 219 216
208 216 211 205 201 194 195 211 204 197 207 204 199 189 196 219 226 211 203 200 205 189 150 204 174 145 163 131 95 199 202 205 207 202 207 215 219 209 181 182 182 182 194 195 171 165 173 174 165 181 216 223 222 221 214 194 176 205 204 187 197 200 190 189 192 196 232 219 154 191 245 254 336 328 300 332 331 292 272 261 251 251 252 250 242 231 221 217
200 206 205 205 206 204 208 213 209 211 204 198 197 185 195 212 214 210 210 202 206 208 209 217 146 136 152 178 180 221 232 241 229 172 200 206 219 244 186 191 194 194 200 190 166 159 149 205 192 196 214 222 222 219 171 135 151 205 206 189 197 204 194 193 209 217 217 169 184 221 238 257 268 253 253 273 265 260 270 268 259 254 250 248 243 234 224 218
212 205 187 189 216 228 227 216 211 214 201 193 183 174 196 209 207 200 206 207 204 204 212 227 176 183 190 184 194 209 215 227 220 193 209 201 209 295 177 179 193 195 196 181 167 153 98 233 213 209 222 230 226 176 159 159 175 201 202 192 200 201 191 196 214 218 177 131 242 237 216 248 260 249 243 258 255 246 255 254 256 257 252 245 240 232 223 218
227 247 215 186 191 232 237 222 213 210 202 194 182 176 193 203 203 189 198 210 205 197 201 217 204 207 203 192 194 199 198 207 213 215 218 196 171 114 145 154 192 185 176 166 164 143 141 213 218 209 228 239 231 148 157 177 179 193 196 196 201 198 197 205 215 219 193 190 245 247 192 224 253 253 244 245 234 232 241 246 253 257 252 245 236 227 222 218
229 263 257 226 216 240 252 223 208 208 208 196 189 195 195 199 204 201 190 190 203 200 197 206 215 212 211 205 196 194 197 195 207 214 204 183 177 165 165 188 207 186 148 140 153 122 162 211 210 187 226 249 241 187 166 187 182 191 201 204 206 205 206 209 214 221 216 219 242 250 238 243 253 253 244 238 232 235 241 244 246 246 245 240 231 226 224 218
221 239 256 251 250 260 299 285 189 198 215 206 202 206 200 199 204 206 194 176 181 197 197 209 221 212 209 211 204 209 213 203 211 216 183 165 192 191 188 192 172 173 155 130 136 147 178 212 67 133 221 256 247 211 180 197 210 220 223 221 218 215 212 213 219 223 222 230 241 247 255 259 253 215 228 238 228 226 228 230 234 237 238 235 228 227 225 221
233 232 233 240 254 234 261 284 180 176 217 213 210 210 205 209 206 201 202 197 196 194 189 204 219 212 205 212 209 217 221 212 217 219 184 180 199 197 198 198 134 136 156 145 144 149 167 195 44 98 212 251 244 211 199 208 219 243 251 242 229 216 205 212 219 219 214 224 237 242 250 256 245 163 200 223 205 209 221 222 227 230 228 228 228 228 228 225
237 237 236 239 249 196 189 265 188 198 219 195 196 207 206 216 213 200 203 207 208 210 201 202 212 208 197 207 210 218 222 219 224 232 209 201 208 201 198 199 169 156 161 144 142 154 153 164 165 154 210 250 238 176 177 179 192 235 246 242 228 202 198 215 222 223 218 215 225 230 237 249 246 170 192 219 202 212 224 223 226 227 223 224 229 231 232 231